Estación Meteorológica Peña el Pijo (Robertgarden) [ 09/30/20 20:40:37 CEST ]

Fecha Hora Presion(HPa) Temp (°C) Humedad % Rocio (°C) Viento ( m/s) Direccion Lluvia 1Hora(mm) Lluvia 24H(mm) LLuvia Total(mm)
2020-Jan-09 01:09:24 1016.400 - - - - NNE     39.88
2020-Jan-09 02:13:56 1016.100 - - - - NNE     39.88
2020-Jan-09 03:09:39 1016.100 - - - - NNE     39.88
2020-Jan-09 04:09:41 1015.800 - - - - NNE     39.88
2020-Jan-09 05:09:28 1015.500 - - - - NNE     39.88
2020-Jan-09 06:09:41 1015.200 - - - - NNE     39.88
2020-Jan-09 07:09:14 1014.800 - - - - NNE     39.88
2020-Jan-09 08:09:30 1014.600 - - - - NNE     39.88
2020-Jan-09 09:09:31 1014.600 - - - - NNE     39.88
2020-Jan-09 10:09:19 1015.000 - - - - NNE     39.88
2020-Jan-09 11:09:05 1015.200 - - - - NNE     39.88
2020-Jan-09 12:09:05 1014.700 - - - - NNE     39.88
2020-Jan-09 13:09:47 1013.500 - - - - NNE     39.88
2020-Jan-09 14:09:12 1013.000 - - - - NNE     39.88
2020-Jan-09 15:09:00 1012.500 - - - - NNE     39.88
2020-Jan-09 16:08:57 1012.500 - - - - NNE     39.88
2020-Jan-09 17:09:13 1012.400 - - - - NNE     39.88
2020-Jan-09 18:09:17 1012.400 - - - - NNE     39.88
2020-Jan-09 19:09:31 1013.500 - - - - NNE     39.88
2020-Jan-09 20:09:20 1013.800 - - - - NNE     39.88
2020-Jan-09 21:09:07 1013.300 - - - - NNE     39.88
2020-Jan-09 22:09:03 1012.700 - - - - NNE     39.88
2020-Jan-09 23:09:13 1013.300 - - - - NNE     39.88

Temperatura Máxima:    Temperatura Mínima:
Presión Máxima:1016.400 Hpa    Presión Mínima:1012.400 Hpa


Volver